Welcome to the New NWS' Forecast!
Most changes are behind the scenes, but click here for differences you might notice.
Latest weather observations around

Everett Snohomish County (KPAE)

Using International System of Units (Switch to English Units)
Date/ Time (PDT) Wind (kph) Vis. (km) Weather Sky Cond. Temp (°C) Rel. Humidity Wind Chill (°C) Heat Index (°C) Pressure Precip. (cm)
Air Dwpt 6 hour Altimeter (hPa) Sea level (hPa) 1 hr 3 hr 6 hr
Max Min
Jul 19 12:53 SSW 9 16.09 Cloudy OVC024 16 11     75%     1022.7 1022.6      
Jul 19 11:53 SSW 15 16.09 Cloudy OVC019 14 11     78%     1022.7 1022.6      
Jul 19 10:53 SSE 18 16.09 Cloudy OVC017 15 11     78%     1022.4 1022.3      
Jul 19 10:02 S 11 16.09 Cloudy OVC015 14 11     81%     1022.4        
Jul 19 09:53 SSW 9 16.09 Cloudy OVC013 14 11     81%     1022.4 1022.4      
Jul 19 08:53 S 5 16.09 Cloudy OVC013 14 11     83%     1022.4 1022.2      
Jul 19 07:53 SSW 9 16.09 Cloudy OVC012 13 11     87%     1022 1022      
Jul 19 06:53 SW 8 16.09 Cloudy OVC013 13 11     87%     1021.7 1021.4      
Jul 19 06:37 Calm 16.09 Cloudy OVC014 14 11     83%     1021.3        
Jul 19 06:00 SE 5 16.09 Cloudy OVC015 14 11     81%     1021.3        
Jul 19 05:53 ESE 8 16.09 Cloudy OVC013 14 11     81%     1021.3 1021.2      
Jul 19 04:53 Calm 16.09 Cloudy BKN012 OVC027 14 11     81%     1021.3 1021.1      
Jul 19 04:18 Calm 16.09 Cloudy OVC029 14 11     81%     1021.3        
Jul 19 03:53 N 9 16.09 Cloudy FEW030 OVC048 14 11     83%     1021.3 1021      
Jul 19 02:53 N 11 16.09 Cloudy FEW043 OVC055 13 11     87%     1021.3 1021      
Jul 19 01:53 NNW 9 16.09 Partly Cloudy FEW043 SCT055 13 11     86%     1021.3 1021.1      
Jul 19 00:53 NNW 13 16.09 Cloudy OVC049 13 11     87%     1021.3 1021.2      
Jul 18 23:53 NNW 13 16.09 Cloudy OVC048 14 11     83%     1021.3 1021.2      
Jul 18 22:53 NNW 18 16.09 Cloudy OVC045 14 11     83%     1021.3 1021.2      
Jul 18 21:53 NNW 17 16.09 Cloudy OVC046 14 11     83%     1021.3 1021.2      
Jul 18 20:53 NNW 18 16.09 Clear CLR 14 11     81%     1021 1020.8      
Jul 18 19:53 NNW 17 16.09 Clear CLR 16 11     72%     1021 1020.7      
Jul 18 18:53 NNW 18 16.09 Clear CLR 18 12     67%     1021 1021      
Jul 18 17:53 NW 15 16.09 Clear CLR 21 13     61%     1021.3 1021      
Jul 18 16:53 W 13 16.09 Clear CLR 23 13     53%   23 1021.7 1021.4      
Jul 18 15:53 SW 9 16.09 Clear CLR 22 12     53%   22 1022 1021.8      
Jul 18 14:53 SSW 21 16.09 Clear CLR 22 13     57%   21 1022.4 1022.2      
Jul 18 13:53 SSW 24 16.09 Clear CLR 19 13     66%     1022.7 1022.6      
Jul 18 12:53 WSW 17 16.09 Clear CLR 21 13     61%     1022.7 1022.5      
Jul 18 12:34 WSW 18 16.09 Mostly Clear FEW021 19 13     66%     1022.7        
Jul 18 12:11 SW 15 16.09 Mostly Cloudy BKN019 19 13     68%     1022.7        
Jul 18 12:04 SW 17 16.09 Partly Cloudy SCT019 19 13     66%     1023        
Jul 18 11:53 SW 13 16.09 Mostly Cloudy BKN019 18 13     70%     1023 1022.7      
Jul 18 10:53 SSW 13 16.09 Cloudy OVC018 17 13     75%     1022.7 1022.7      
Jul 18 10:26 SSW 9 16.09 Cloudy OVC016 17 13     78%     1022.7        
Jul 18 09:53 SSW 9 16.09 Cloudy OVC014 16 13     83%     1022.7 1022.6      
Jul 18 08:53 SSW 15 16.09 Cloudy OVC014 16 13     83%     1022.4 1022.4      
Jul 18 07:53 SSW 9 16.09 Cloudy OVC014 16 13     83%     1022 1022      
Jul 18 07:16 S 11 16.09 Cloudy BKN012 OVC017 16 13     83%     1021.7        
Jul 18 06:53 S 11 16.09 Cloudy OVC015 16 13     83%     1021.7 1021.3      
Jul 18 06:48 S 11 16.09 Cloudy OVC015 15 13     88%     1021.3        
Jul 18 05:53 SSE 17 16.09 Cloudy OVC014 16 13     83%     1020.7 1020.6      
Jul 18 04:53 SSE 15 16.09 Clear   16 13     81%     1020.3 1020.1      
Jul 18 03:53 S 18 16.09 Cloudy OVC013 16 13     81%     1020 1019.8      
Jul 18 02:53   16.09 Cloudy OVC013 16 13     81%     1019.7 1019.3      
Jul 18 01:53 S 15 16.09 Cloudy OVC012 16 13     83%     1019.3 1019.1      
Jul 18 01:01 S 15 16.09 Mostly Cloudy BKN011 16 13     83%     1019.3        
Jul 18 00:53 S 13 16.09 Partly Cloudy SCT011 16 13     86%     1019.3 1018.9      
Jul 17 23:53 Calm 16.09 Clear CLR 14 13     90%     1019 1018.7      
Jul 17 22:53 Calm 16.09 Clear CLR 15 13     90%     1018.3 1018.1      
Jul 17 21:53 NNW 9 16.09 Clear CLR 16 13     83%     1017.6 1017.4      
Jul 17 20:53 NNW 13 16.09 Clear CLR 16 13     83%     1016.9 1016.5      
Jul 17 19:53 NNW 11 16.09 Clear CLR 19 13     70%     1016.6 1016.2      
Jul 17 18:53 NW 15 16.09 Clear CLR 22 13     57%   22 1016.3 1016      
Jul 17 17:53 NNW 15 16.09 Clear CLR 23 13     52%   23 1016.3 1016      
Jul 17 16:53 WSW 13 16.09 Clear CLR 28 11     33%   27 1016.6 1016      
Jul 17 15:53 SSW 18 16.09 Clear CLR 27 11     37%   27 1016.9 1016.4      
Jul 17 14:53 SSW 21 16.09 Clear CLR 27 12     39%   26 1017.3 1016.7      
Jul 17 13:53 SSW 13 16.09 Clear CLR 27 12     39%   26 1017.3 1016.8      
Jul 17 12:53 SW 17 16.09 Clear CLR 26 12     43%   25 1017.3 1016.9      
Jul 17 11:53 SSW 11 16.09 Clear CLR 24 12     45%   24 1017.6 1017.2      
Jul 17 10:53 SW 9 16.09 Clear CLR 23 13     53%   23 1017.6 1017.2      
Jul 17 09:53 SSW 9 16.09 Clear CLR 22 13     57%   22 1017.6 1017.2      
Jul 17 08:53 SW 5 16.09 Clear CLR 21 12     59%     1017.6 1017      
Jul 17 07:53 Calm 16.09 Clear CLR 19 13     68%     1017.3 1016.8      
Jul 17 06:53 Calm 16.09 Clear CLR 18 12     70%     1016.9 1016.5      
Jul 17 05:53 Calm 16.09 Clear CLR 17 11     70%     1016.6 1016.1      
Jul 17 04:53 Calm 16.09 Clear CLR 17 11     70%     1016.6 1016.1      
Jul 17 03:53 Calm 16.09 Clear CLR 18 9     58%     1016.3 1015.8      
Jul 17 02:53 Calm 16.09 Clear CLR 20 9     49%     1016.3 1015.7      
Jul 17 01:53 N 8 16.09 Clear CLR 21 8     44%     1016.3 1015.7      
Jul 17 00:53 N 8 16.09 Clear CLR 20 10     53%     1015.9 1015.6      
Jul 16 23:53 Calm 16.09 Clear CLR 19 11     57%     1015.9 1015.7      
Jul 16 22:53 NNW 8 16.09 Clear CLR 19 11     57%     1015.6 1015.4      
Jul 16 21:53 NNW 5 16.09 Clear CLR 21 11     51%     1015.9 1015.4      
Jul 16 20:53 NW 5 16.09 Clear CLR 24 9     39%   24 1015.2 1014.8      
Jul 16 19:53 NW 9 16.09 Clear CLR 27 9     33%   26 1015.2 1014.9      
Jul 16 18:53 NW 9 16.09 Clear CLR 27 11     35%   27 1015.2 1014.9      
Jul 16 17:53 NNW 11 16.09 Clear CLR 28 11     35%   27 1015.6 1015.3      
Jul 16 16:53 NW 13 16.09 Clear CLR 28 12     37%   27 1015.9 1015.7      
Jul 16 15:53 8 16.09 Clear CLR 28 12     37%   28 1016.3 1016      
Jul 16 14:53 9 16.09 Clear CLR 28 12     37%   28 1016.9 1016.3      
Jul 16 13:53 SW 8 16.09 Clear CLR 27 12     41%   26 1016.9 1016.6      
May 14 07:53 SE 5 16.09 Clear CLR 18 12     65%     1014.9 1014.7      
Notice The following observation data may not be complete
May 14 05:53 ESE 5 16.09 Clear CLR   11      %     1014.6 1014.3      
May 14 02:53 E 13 16.09 Clear CLR 17 11     67%     1013.9 1013.6      
May 13 04:53 NNW 11 16.09 Clear CLR 13 10     83%     1014.9 1014.9      
May 12 08:17 NNW 8 2.41 Fog/Mist SCT001 11 10     96%     1022.4        
May 12 02:53 NNW 8 16.09 Clear CLR 10 9     93% 9   1022.7 1022.5      
May 12 01:53 NNW 8 16.09 Clear CLR 10 8     89% 9   1022.7 1022.7      
May 11 18:53 NW 9 16.09 Clear CLR 17 8     56%     1023 1022.9      
Jun 11 21:53 8 16.09 Clear CLR 13 9     77%     1015.9 1015.8      
Jun 11 20:53 NW 8 16.09 Clear   14 9     70%     1015.9 1015.7      
Jun 11 19:53 NW 9 16.09 Clear   17 7     52%     1015.9 1015.6      
Jun 11 11:53 WSW 11 16.09 Clear CLR 15 11     75%     1017.6 1017.5      
Jun 10 23:53 N 9 16.09 Clear   12 9     80%     1014.2 1014.3      
Jun 10 16:53 NW 11 16.09 Clear CLR 16 6     52%     1011.5 1011.6      
Notice The following observation data may not be complete
Jun 10 02:39   16.09 Cloudy BKN015 OVC080          %              
Jun 10 01:48   16.09 Cloudy FEW016 BKN070 OVC085 11 8     82%     1011.5        
Jun 09 11:10 Calm 16.09 Cloudy FEW025 BKN031 OVC080 13 8     72%     1012.2        
Jun 09 06:53 ESE 15 16.09 Cloudy OVC055 10 8     86% 8   1012.9 1012.8      
Jun 09 02:53 SSE 13 16.09 Mostly Cloudy BKN070 11 7     79%     1014.2 1014      
Jun 08 07:29 SSE 13 12.87 Light Rain SCT004 BKN009 BKN045 13 12     93%     1003.7   0    
Jun 06 05:53 WNW 5 16.09 Clear CLR 11 9     86%     1016.9 1016.6      
Jun 05 22:53 8 16.09 Clear CLR 12 8     80%     1018.6 1018.5      
Jun 05 18:53 NW 11 16.09 Clear CLR 18 8     52%     1018.3 1018.4